User: anonymous   Login
Location: Kawakawa
(35.3830°S, 174.0670°E)
Time: 07:31:52
(UTC+13:00)
Language:

Envisat - Orbit

View from above orbital plane
View from above orbital plane
View from above satellite
View from above satellite

Ground track
Ground track

The orbit data is extracted from the following two-line orbital elements,

1 27386U 02009A   19346.42527544  .00000007  00000-0  15756-4 0  9998
2 27386  98.1410 358.3331 0001329  90.1924  44.4573 14.37965543931598
Epoch (UTC): 12 December 2019 10:12:23
Eccentricity: 0.0001329
inclination: 98.1410°
perigee height: 764 km
apogee height: 766 km
right ascension of ascending node: 358.3331°
argument of perigee: 90.1924°
revolutions per day: 14.37965543
mean anomaly at epoch: 44.4573°
orbit number at epoch: 93159

The dashed part of the orbit path shows where the satellite is in the earth's shadow,  

DLR